Overview Statistics Trail Chart Weather Telemetry Raw packets
 

This is the latest recevied weather packets stored in our database for station/object DG0LHZ-10. If no packets are shown the sender has not sent any weather packets the latest 10 day(s).

<< 1 2 3 4 >>
Time Temp. Humidity Pressure Rain* Wind** Luminosity Snow
1788365611 28.33° C 38% 1020.2 hPa - - - -
1788364711 28.33° C 39% 1020.1 hPa - - - -
1788363811 28.33° C 38% 1020.2 hPa - - - -
1788362911 28.33° C 38% 1020.6 hPa - - - -
1788362011 28.89° C 38% 1020.6 hPa - - - -
1788361111 28.89° C 39% 1020.8 hPa - - - -
1788360211 28.33° C 40% 1020.9 hPa - - - -
1788359311 28.33° C 40% 1020.9 hPa - - - -
1788358411 28.33° C 40% 1021.1 hPa - - - -
1788357529 28.33° C 40% 1021.2 hPa - - - -
1788356611 28.33° C 40% 1021.3 hPa - - - -
1788355711 28.33° C 41% 1021.3 hPa - - - -
1788354810 27.78° C 42% 1021.4 hPa - - - -
1788353910 27.22° C 43% 1021.5 hPa - - - -
1788353010 26.67° C 44% 1021.6 hPa - - - -
1788352110 26.67° C 44% 1021.7 hPa - - - -
1788351210 26.11° C 45% 1021.8 hPa - - - -
1788350310 26.11° C 46% 1022 hPa - - - -
1788349410 25.56° C 47% 1022.2 hPa - - - -
1788348510 25.56° C 47% 1022.2 hPa - - - -
1788347610 25° C 48% 1022.3 hPa - - - -
1788346710 25° C 48% 1022.5 hPa - - - -
1788345810 23.89° C 49% 1022.6 hPa - - - -
1788344910 23.33° C 50% 1022.7 hPa - - - -
1788344010 22.78° C 51% 1022.7 hPa - - - -

* Rain since midnight (hover to see other rain measurements)
** Current wind speed in m/s (hover to see current wind gust speed)